WORLDVIEW-2 (WV-2)

Last updated on Mon Jul 07 2025 00:02:28 GMT+0000 (Coordinated Universal Time)

1 35946U 09055A 25187.61525841 .00000089 00000+0 44462-4 0 9991 2 35946 98.4811 260.9336 0004695 159.0175 201.1205 14.37278130825991
UTC large
Height (km)
Speed (km/s)
/
Latitude / Longitude
Inclination (degrees)
Orbital Period (minutes)
Azimuth
Elevation
Range (km)
Doppler Factor

Next 0 passes for location: London (51.5072 / 0.1276)

Sorry there are no passes over London.